Location: Agendoh
(31.0664°N, 8.9343°W)
Time: 19:14:59
(UTC+00:00)

SJ 16-02 - Pass Details

Date: 06 December 2021
Orbit: 605 x 616 km, 75.0° (Epoch: 17 January)

Event Time Altitude Azimuth Distance (km) Brightness Sun altitude
Rises 06:39:35 0° 217° (SW) 2,851 4.6 -8.8°
Reaches altitude 10° 06:42:01 10° 228° (SW) 1,949 3.7 -8.3°
Maximum altitude 06:45:50 30° 290° (WNW) 1,101 2.1 -7.6°
Drops below altitude 10° 06:49:41 10° 351° (N) 1,955 3.6 -6.8°
Sets 06:52:09 0° 3° (N) 2,862 4.6 -6.3°
